Location: Puketoi
(40.5833°S, 176.0167°E)
Time: 15:29:10
(UTC+00:00)

PAYLOAD A - Pass Details

Date: 28 September 2023
Orbit: 692 x 830 km, 98.5° (Epoch: 01 December)

Event Time Altitude Azimuth Distance (km) Brightness Sun altitude
Exits shadow 15:28:21 28° 215° (SW) 1,526 5.4 -27.4°
Drops below altitude 10° 15:31:00 10° 202° (SSW) 2,469 6.7 -26.9°
Sets 15:33:27 0° 197° (SSW) 3,411 7.5 -26.5°
